Вернуться в каталог

STARLINK-33811

АктивенСвязьVLEO
NORAD 63504·PAYLOAD·🇺🇸 United States

Запущен Apr 7, 2025 с Vandenberg Space Force Base

Loading…

Ближайшие Пролёты (ближайшие 24 часа)

TLE

СвежийSource: CelesTrak SupGP

Эпоха: Sep 15, 2026, 03:31 UTC

1 63504C 25071M   26258.14701389  .00059207  00000+0  17487-2 0  2588
2 63504  53.1575 338.4128 0001287 100.3268  52.2384 15.34372305    11

Отслеживайте STARLINK-33811 в реальном времени с AllMySat

Download on the App Store